Regional Weather Roundup
Issued by NWS

Home | Current Version | Previous Version | Graphics & Text | Print | Product List | Glossary On
Versions: 1 2 3 4 5 6 7 8 9 10 11 12 13 14 15 16 17 18 19 20 21 22 23 24 25 26 27 28 29 30 31 32 33 34 35 36 37 38 39 40 41 42 43 44 45 46 47 48 49 50
000
ASUS43 KMPX 012101
RWRMN
WEATHER ROUNDUP FOR MINNESOTA
NATIONAL WEATHER SERVICE TWIN CITIES/CHANHASSEN MN
400 PM CDT WED OCT 01 2014


NOTE: "FAIR" INDICATES FEW OR NO CLOUDS BELOW 12,000 FEET WITH NO
SIGNIFICANT WEATHER AND/OR OBSTRUCTIONS TO VISIBILITY. N/A MEANS
CURRENT SKY AND/OR WEATHER CONDITIONS ARE NOT AVAILABLE.

MNZ060>063-068>070-012200-
   Twin Cities Metro

CITY           SKY/WX    TMP DP  RH WIND       PRES   REMARKS
TWIN CITIES    CLOUDY    55  53  93 SE8       29.77F
ST PAUL        CLOUDY    55  53  93 SE10      29.78F
CRYSTAL        CLOUDY    57  52  83 SE9       29.75F
BLAINE         CLOUDY    55  55 100 SE12      29.77F
LAKEVILLE      CLOUDY    55  54  94 SE6       29.77S FOG
EDEN PRAIRIE   CLOUDY    57  54  89 SE8       29.76S
SOUTH ST PAUL  CLOUDY    55  54  95 SE8       29.78S
LAKE ELMO      CLOUDY    54  52  94 SE10      29.79F
$$
MNZ001>005-007-008-013>017-022>024-027-028-012200-
   Northwest Minnesota

CITY           SKY/WX    TMP DP  RH WIND       PRES   REMARKS
BEMIDJI        CLOUDY    57  53  85 S13       29.67S
HALLOCK        PTSUNNY   64  54  68 W20       29.55R
ROSEAU         PTSUNNY   66  55  68 SW18G24   29.56S
WARROAD        PTSUNNY   64  57  77 S8G22     29.57S
THIEF RVR FALL PTSUNNY   64  48  55 SW18G28   29.60R
CROOKSTON      PTSUNNY   66  52  59 SW20      29.62R
FOSSTON        CLOUDY    64  54  68 SW14      29.63S
DETROIT LAKES  MOSUNNY   68  52  56 W14G20    29.67R
PARK RAPIDS    CLOUDY    56  53  90 S17       29.69S
MAHNOMEN       CLOUDY    68  51  55 SW16G24   29.64R
$$
MNZ006-009>011-018-025>026-012200-
   North Central Minnesota

CITY           SKY/WX    TMP DP  RH WIND       PRES   REMARKS
BAUDETTE       CLOUDY    57  52  83 S10G20    29.62R
FLAG ISLAND    CLOUDY    57  54  88 S29       29.54S
INTL FALLS     CLOUDY    55  50  83 S8        29.67F
WASKISH        CLOUDY    57  54  88 CALM      29.65S
BIG FORK       CLOUDY    54  48  82 S12       29.71S
LONGVILLE      CLOUDY    54  52  94 SE12      29.72R
GRAND RAPIDS   CLOUDY    50  46  87 S15       29.73S
CRANE LAKE     LGT RAIN  48  48 100 S8        29.74S
ORR            DRIZZLE   50  46  87 S7G17     29.70S
COOK           CLOUDY    50  48  93 SE8       29.74F
WALKER         CLOUDY    54  51  89 S8        29.69S
$$
MNZ012-019>021-037-012200-
   Northeast Minnesota

CITY           SKY/WX    TMP DP  RH WIND       PRES   REMARKS
DULUTH         LGT RAIN  50  47  89 SE13      29.77F FOG
ELY            LGT RAIN  48  46  93 S8        29.77R
HIBBING        LGT RAIN  51  48  89 S8        29.77R
EVELETH        RAIN      50  48  93 SE9       29.78R
DULUTH HARBOR  RAIN      52  50  93 E6        29.81F
TWO HARBORS    LGT RAIN  48  43  81 E5        29.79F
SILVER BAY     LGT RAIN  46  46 100 E5        29.80F
GRAND MARAIS     N/A     49  47  93 NE5       29.84F
G MARAIS ARPRT RAIN      45  41  87 SE5       29.83S
$$
MNZ029>031-032-039>041-046>048-054>057-064-012200-
   West Central Minnesota

CITY           SKY/WX    TMP DP  RH WIND       PRES   REMARKS
FERGUS FALLS   PTSUNNY   72  48  43 W13       29.67R
WHEATON        SUNNY     70  50  49 W10G18    29.69R
MORRIS         MOSUNNY   72  54  53 SW8       29.67S
ALEXANDRIA     CLOUDY    62  57  83 SE14      29.71S
ELBOW LAKE     FAIR      70  53  55 W7        29.68R
WADENA         CLOUDY    55  54  94 SE9       29.70R FOG
GLENWOOD       RAIN      59  55  88 SE7       29.72R
APPLETON       MOSUNNY   77  52  41 W10       29.68R
BENSON         CLOUDY    64  59  82 SE5       29.71R
ORTONVILLE     SUNNY     72  50  46 W9        29.68S
MADISON        MOSUNNY   75  54  46 W13       29.68R
WILLMAR        FAIR      68  55  64 SE12      29.72S
$$
MNZ033>034-036-042>043-049>051-058-059-012200-
   Central Minnesota

CITY           SKY/WX    TMP DP  RH WIND       PRES   REMARKS
ST CLOUD       CLOUDY    59  53  80 SE10      29.74F
SAUK CENTRE    CLOUDY    58  55  87 SE8       29.72S
PAYNESVILLE    MOSUNNY   60  53  78 E10       29.73F
AITKIN         CLOUDY    54  48  82 S6        29.73S
PINE RIVER     CLOUDY    54  52  94 SE9       29.76S
BRAINERD       CLOUDY    52  51  97 S10       29.74S FOG
STAPLES        CLOUDY    55  52  88 S9        29.72R FOG
LONG PRAIRIE   CLOUDY    55  54  94 SE9       29.73R
LITTLE FALLS   CLOUDY    55  50  82 SE9       29.74S
LITCHFIELD     PTSUNNY   64  57  77 SE8       29.74F
BUFFALO        CLOUDY    56  51  84 SE6       29.77S
MAPLE LAKE     CLOUDY    58  55  89 SE5       29.76S
$$
MNZ037-044-045-052-053-012200-
   East Central Minnesota

CITY           SKY/WX    TMP DP  RH WIND       PRES   REMARKS
PRINCETON      CLOUDY    55  52  88 SE12      29.76S
MORA           CLOUDY    50  48  93 S6        29.78S
CAMBRIDGE      CLOUDY    55  46  71 SE7       29.75S
RUSH CITY      CLOUDY    52  50  93 SE10G16   29.78S
MOOSE LAKE     CLOUDY    50  48  93 S5        29.75S
HINCKLEY       CLOUDY    52  50  93 S6        29.78S
CLOQUET        RAIN      50  48  93 SE6       29.77F
MCGREGOR       CLOUDY    50  48  93 S7        29.75F
$$
MNZ071>073-080-081-089-090-097-098-012200-
   Southwest Minnesota

CITY           SKY/WX    TMP DP  RH WIND       PRES   REMARKS
MONTEVIDEO     PTSUNNY   66  61  82 S7        29.71R
GRANITE FALLS  CLOUDY    70  59  68 SE8       29.71S
CANBY          MOSUNNY   75  53  45 W9G16     29.70S
MARSHALL       MOSUNNY   75  55  50 SW7       29.68S
REDWOOD FALLS  MOSUNNY   70  57  63 SE14      29.71S
OLIVIA         PTSUNNY   68  55  64 SE8       29.72R
PIPESTONE      HVY RAIN  64  57  77 SW9       29.74R
WINDOM         MOSUNNY   72  57  60 S8        29.73F
WORTHINGTON    SUNNY     72  59  64 S12       29.74S
JACKSON        MOSUNNY   70  55  60 S9        29.76S
TRACY          MOSUNNY   73  60  65 S9        29.70F
SLAYTON        PTSUNNY   74  54  48 SW8       29.73S
$$
MNZ065>067-074>077-082>085-091>093-012200-
   South Central Minnesota

CITY           SKY/WX    TMP DP  RH WIND       PRES   REMARKS
MANKATO        CLOUDY    59  54  82 S8        29.76S
NEW ULM        MOSUNNY   63  57  82 S12       29.74F
ST JAMES       PTSUNNY   64  57  77 SE7       29.76F
FAIRMONT       PTSUNNY   66  57  72 CALM      29.75F
GLENCOE        CLOUDY    60  56  87 SE7       29.75R
FARIBAULT      CLOUDY    57  55  94 S8        29.77F FOG
OWATONNA       PTSUNNY   59  55  88 S8        29.77S FOG
WASECA         CLOUDY    55  52  88 SE7       29.78S FOG
ALBERT LEA     CLOUDY    59  57  94 S8        29.77S FOG
$$
MNZ078>079-086>088-094>096-012200-
   Southeast Minnesota

CITY           SKY/WX    TMP DP  RH WIND       PRES   REMARKS
ROCHESTER      CLOUDY    57  55  93 S8        29.80F FOG
RED WING       CLOUDY    55  54  94 SE6       29.78F FOG
STANTON        CLOUDY    59  55  87 S7        29.76F FOG
DODGE CENTER   CLOUDY    59  55  88 S8        29.79S
WINONA         CLOUDY    55  54  94 SE5       29.81S FOG
AUSTIN         CLOUDY    57  55  94 SE7       29.77F FOG
PRESTON        CLOUDY    56  53  88 CALM      29.82R
$$
ABBREVIATIONS USED IN REMARKS
   TC - TEMPERATURES IN CELSIUS
  WCI - WIND CHILL INDEX
   HX - HEAT INDEX
  VSB - VISIBILITY
$$



USA.gov is the U.S. government's official web portal to all federal, state and local government web resources and services.